TimeEST,TemperatureF,Dew PointF,Humidity,Sea Level PressureIn,VisibilityMPH,Wind Direction,Wind SpeedMPH,Gust SpeedMPH,PrecipitationIn,Events,Conditions,WindDirDegrees,DateUTC
12:52 AM,18.0,15.1,88,30.39,10.0,Calm,Calm,-,N/A,,Overcast,0,2013-01-09 05:52:00
1:49 AM,17.6,12.2,79,30.33,10.0,Calm,Calm,-,N/A,,Scattered Clouds,0,2013-01-09 06:49:00
2:52 AM,12.9,9.0,84,30.38,10.0,Calm,Calm,-,N/A,,Clear,0,2013-01-09 07:52:00
3:52 AM,10.0,6.1,84,30.36,10.0,Calm,Calm,-,N/A,,Clear,0,2013-01-09 08:52:00
4:52 AM,8.1,3.9,83,30.35,10.0,Calm,Calm,-,N/A,,Clear,0,2013-01-09 09:52:00
5:52 AM,6.1,1.0,80,30.37,10.0,Calm,Calm,-,N/A,,Clear,0,2013-01-09 10:52:00
6:52 AM,3.9,-0.9,80,30.39,10.0,Calm,Calm,-,N/A,,Clear,0,2013-01-09 11:52:00
8:52 AM,5.0,1.0,84,30.38,5.0,Calm,Calm,-,N/A,,Clear,0,2013-01-09 13:52:00
9:52 AM,15.1,12.0,88,30.32,6.0,Calm,Calm,-,N/A,,Clear,0,2013-01-09 14:52:00
10:52 AM,19.9,17.1,89,30.28,4.0,Calm,Calm,-,N/A,,Clear,0,2013-01-09 15:52:00
12:52 PM,26.1,21.0,81,30.11,10.0,Calm,Calm,-,N/A,,Unknown,0,2013-01-09 17:52:00
1:52 PM,28.0,21.0,75,30.13,10.0,Calm,Calm,-,N/A,,Clear,0,2013-01-09 18:52:00
2:52 PM,28.9,21.0,72,30.07,10.0,Calm,Calm,-,N/A,,Overcast,0,2013-01-09 19:52:00
3:08 PM,30.2,23.0,75,30.01,2.0,West,9.2,-,0.00,Snow,Light Snow,280,2013-01-09 20:08:00
3:13 PM,28.4,23.0,80,29.99,1.0,Calm,Calm,-,0.00,Snow,Light Snow,0,2013-01-09 20:13:00
3:22 PM,28.4,24.8,86,30.00,2.0,Calm,Calm,-,0.00,Snow,Light Snow,0,2013-01-09 20:22:00
3:30 PM,28.4,24.8,86,29.99,6.0,East,4.6,-,0.00,Snow,Light Snow,90,2013-01-09 20:30:00
3:48 PM,30.2,26.6,86,29.94,8.0,East,9.2,-,0.00,Snow,Light Snow,80,2013-01-09 20:48:00
3:52 PM,30.9,26.1,82,29.99,9.0,East,8.1,-,0.00,,Overcast,80,2013-01-09 20:52:00
4:52 PM,30.0,25.0,82,29.94,10.0,West,6.9,-,N/A,,Overcast,280,2013-01-09 21:52:00
5:52 PM,30.0,26.1,85,29.94,10.0,WNW,4.6,-,N/A,,Overcast,290,2013-01-09 22:52:00
6:52 PM,26.1,23.0,88,29.94,10.0,Calm,Calm,-,N/A,,Mostly Cloudy,0,2013-01-09 23:52:00
7:52 PM,27.0,24.1,89,29.94,10.0,Calm,Calm,-,N/A,,Overcast,0,2013-01-10 00:52:00
8:52 PM,35.1,28.0,76,29.94,7.0,SW,6.9,16.1,0.00,Snow,Light Snow,230,2013-01-10 01:52:00
9:52 PM,37.9,28.0,68,29.94,10.0,West,8.1,-,0.00,,Overcast,260,2013-01-10 02:52:00
10:17 PM,37.4,28.4,70,29.90,8.0,West,9.2,16.1,0.00,Snow,Light Snow,260,2013-01-10 03:17:00
10:52 PM,35.1,27.0,72,29.94,10.0,SW,4.6,-,0.00,,Overcast,230,2013-01-10 03:52:00
11:52 PM,36.0,28.0,73,29.95,9.0,WSW,6.9,-,0.00,Snow,Light Snow,250,2013-01-10 04:52:00